THORAD AGENA D DEB, 42521

Orbit data source: Space-Track

THORAD AGENA D DEB, 42521 is space debris in SSO originally from a launch on Wed, 08 Apr 1970 UTC launched from the Air Force Western Test Range (AFWTR). Debris objects in space refer to the collection of defunct objects orbiting the Earth. Examples of debris include non-operational satellites, rocket bodies, and fragments generated from explosions, collisions, or faulty payload assembly.

Loading next visibility...
Identifier
42521, 1970-025SB
Orbit
SSO
Country
Flag of USUS
Related business
Manufacturer
Unknown
Mission
Spacecraft
Bus & Motor
Unknown
Mass
Unknown
Launch date (UTC)
1970-04-08 (56 years ago)
Launch vehicle
Unknown
Launch site
Air Force Western Test Range (AFWTR)
Object type
Payload
Rocket body
Debris
Shape & HBR
Unknown shape, 0.1 m
Radar Cross Section
Small (<0.1 m²)

Expand to show TLE details & history
Last TLE update: 13 hours ago

TLE from 13 hours ago
0 THORAD AGENA D DEB
1 42521U 70025SB  26122.87486575  .00000706  00000-0  71987-3 0  9999
2 42521  99.9455 183.8778 0012977 271.1076  88.8588 13.80553029625430
Epoch: 2026-05-02T20:59Z
TLE epoch observation values (Epoch: 2026-05-02T20:59:48.400Z)
Latitude
-0.00001°
Longitude
8.13964°
Altitude
964.567 km
Speed
7.37 km/s
True Right ascension
12h 15m 30s
True Declination
0° 00' 00"
Sunlit
Object was in full shadow at epoch
Visualization orbit readout
Latitude
Unknown
Longitude
Unknown
Altitude
Unknown
Speed
Unknown
Apparent Right ascension
Unknown
Apparent Declination
Unknown
Sunlit
N/A
Visualization observer readout
Local Sidereal Time
17:31:35
Azimuth
Unknown
Elevation
Unknown
Doppler factor
Unknown
Orbital elements
Apogee altitude
968.721 km
Perigee altitude
949.678 km
Semi-major axis
7,337.337 km
Eccentricity
0.0013
Inclination
99.9455°
RAAN
183.8778°
Arg. of periapsis
271.1076°
True anomaly
89.00748°
Mean anomaly
88.8588°
Eccentric anomaly
88.93314°
Mean motion
3.45331 °/min
Orbital period
104.25 mins
BSTAR
0.00071987

Documentation

Showing up to 5 results
|